| time (UTC) | temp C | wind direction | speed KPH | gust KPH | rain 1hr cm | rain 24hr cm | rain mn cm | humidity % | barometer mb |
| 20260507144404 | 20 | 155 | 3.2 | 9.7 | 0.00 | 0.00 | 0.00 | 56 | 1009.6 |
| 20260507143905 | 20 | 176 | 3.2 | 8.0 | 0.00 | 0.00 | 0.00 | 56 | 1009.6 |
| 20260507143404 | 20 | 215 | 6.4 | 12.9 | 0.00 | 0.00 | 0.00 | 57 | 1009.6 |
| 20260507142905 | 20 | 207 | 8.0 | 12.9 | 0.00 | 0.00 | 0.00 | 56 | 1009.6 |
| 20260507142404 | 19 | 169 | 4.8 | 11.3 | 0.00 | 0.00 | 0.00 | 57 | 1009.7 |
| 20260507140904 | 19 | 216 | 8.0 | 11.3 | 0.00 | 0.00 | 0.00 | 56 | 1009.6 |
| 20260507135905 | 19 | 227 | 3.2 | 11.3 | 0.00 | 0.00 | 0.00 | 57 | 1009.5 |
| 20260507135404 | 19 | 202 | 4.8 | 11.3 | 0.00 | 0.00 | 0.00 | 56 | 1009.6 |
| 20260507134904 | 19 | 201 | 3.2 | 8.0 | 0.00 | 0.00 | 0.00 | 56 | 1009.6 |
| 20260507133904 | 19 | 219 | 6.4 | 11.3 | 0.00 | 0.00 | 0.00 | 57 | 1009.4 |
| 20260507133404 | 19 | 211 | 4.8 | 12.9 | 0.00 | 0.00 | 0.00 | 57 | 1009.5 |
| 20260507132404 | 20 | 233 | 8.0 | 19.3 | 0.00 | 0.00 | 0.00 | 56 | 1009.6 |
| 20260507131906 | 20 | 220 | 9.7 | 14.5 | 0.00 | 0.00 | 0.00 | 55 | 1009.7 |
| 20260507131404 | 20 | 222 | 8.0 | 14.5 | 0.00 | 0.00 | 0.00 | 56 | 1009.6 |
| 20260507130904 | 20 | 224 | 6.4 | 20.9 | 0.00 | 0.00 | 0.00 | 56 | 1009.6 |
| 20260507130404 | 20 | 221 | 11.3 | 19.3 | 0.00 | 0.00 | 0.00 | 54 | 1009.6 |
| 20260507125904 | 20 | 219 | 9.7 | 19.3 | 0.00 | 0.00 | 0.00 | 55 | 1009.6 |
| 20260507125405 | 20 | 222 | 11.3 | 19.3 | 0.00 | 0.00 | 0.00 | 56 | 1009.6 |
| 20260507124905 | 20 | 209 | 8.0 | 19.3 | 0.00 | 0.00 | 0.00 | 58 | 1009.6 |
| 20260507124404 | 20 | 244 | 9.7 | 24.1 | 0.00 | 0.00 | 0.00 | 60 | 1009.7 |
| 20260507123904 | 20 | 214 | 11.3 | 20.9 | 0.00 | 0.00 | 0.00 | 59 | 1009.7 |
| 20260507123404 | 20 | 248 | 11.3 | 19.3 | 0.00 | 0.00 | 0.00 | 58 | 1009.6 |
| 20260507122904 | 20 | 225 | 9.7 | 19.3 | 0.00 | 0.00 | 0.00 | 59 | 1009.6 |
| 20260507122404 | 20 | 250 | 9.7 | 16.1 | 0.00 | 0.00 | 0.00 | 58 | 1009.5 |
| 20260507121904 | 20 | 229 | 11.3 | 20.9 | 0.00 | 0.00 | 0.00 | 59 | 1009.6 |
| 20260507121404 | 20 | 233 | 9.7 | 19.3 | 0.00 | 0.00 | 0.00 | 58 | 1009.6 |
| 20260507120904 | 20 | 223 | 11.3 | 24.1 | 0.00 | 0.00 | 0.00 | 57 | 1009.7 |
| 20260507115904 | 20 | 235 | 11.3 | 22.5 | 0.00 | 0.00 | 0.00 | 58 | 1009.7 |
| 20260507115404 | 20 | 224 | 11.3 | 24.1 | 0.00 | 0.00 | 0.00 | 59 | 1009.7 |
| 20260507114904 | 20 | 239 | 9.7 | 27.4 | 0.00 | 0.00 | 0.00 | 60 | 1009.7 |
| 20260507114404 | 20 | 234 | 9.7 | 27.4 | 0.00 | 0.00 | 0.00 | 59 | 1009.7 |
| 20260507113904 | 20 | 216 | 8.0 | 19.3 | 0.00 | 0.00 | 0.00 | 59 | 1009.7 |
| 20260507113404 | 20 | 220 | 9.7 | 19.3 | 0.00 | 0.00 | 0.00 | 59 | 1009.7 |
| 20260507112905 | 20 | 227 | 9.7 | 19.3 | 0.00 | 0.00 | 0.00 | 58 | 1009.7 |
| 20260507112404 | 20 | 216 | 11.3 | 20.9 | 0.00 | 0.00 | 0.00 | 60 | 1009.7 |
| 20260507111905 | 20 | 196 | 8.0 | 25.7 | 0.00 | 0.00 | 0.00 | 59 | 1009.7 |
| 20260507111404 | 20 | 222 | 6.4 | 19.3 | 0.00 | 0.00 | 0.00 | 62 | 1009.7 |
| 20260507110904 | 20 | 242 | 11.3 | 19.3 | 0.00 | 0.00 | 0.00 | 61 | 1009.7 |
| 20260507110408 | 20 | 238 | 8.0 | 19.3 | 0.00 | 0.00 | 0.00 | 61 | 1009.7 |
| 20260507105903 | 20 | 238 | 9.7 | 19.3 | 0.00 | 0.00 | 0.00 | 62 | 1009.7 |
| 20260507105404 | 20 | 223 | 9.7 | 19.3 | 0.00 | 0.00 | 0.00 | 61 | 1009.6 |
| 20260507104904 | 20 | 224 | 9.7 | 19.3 | 0.00 | 0.00 | 0.00 | 61 | 1009.6 |
| 20260507104405 | 20 | 248 | 9.7 | 19.3 | 0.00 | 0.00 | 0.00 | 63 | 1009.6 |
| 20260507103904 | 19 | 245 | 12.9 | 24.1 | 0.00 | 0.00 | 0.00 | 63 | 1009.5 |
| 20260507103404 | 19 | 203 | 9.7 | 22.5 | 0.00 | 0.00 | 0.00 | 64 | 1009.6 |
| 20260507102904 | 19 | 236 | 6.4 | 16.1 | 0.00 | 0.00 | 0.00 | 65 | 1009.6 |
| 20260507102404 | 19 | 218 | 9.7 | 20.9 | 0.00 | 0.00 | 0.00 | 64 | 1009.5 |
| 20260507101904 | 18 | 237 | 6.4 | 22.5 | 0.00 | 0.00 | 0.00 | 65 | 1009.5 |
| 20260507101405 | 19 | 194 | 12.9 | 25.7 | 0.00 | 0.00 | 0.00 | 64 | 1009.5 |
| 20260507100904 | 19 | 193 | 6.4 | 16.1 | 0.00 | 0.00 | 0.00 | 64 | 1009.5 |
| 20260507095904 | 20 | 200 | 4.8 | 12.9 | 0.00 | 0.00 | 0.00 | 64 | 1009.4 |
| 20260507095404 | 20 | 203 | 8.0 | 14.5 | 0.00 | 0.00 | 0.00 | 64 | 1009.4 |
| 20260507094904 | 20 | 198 | 8.0 | 14.5 | 0.00 | 0.00 | 0.00 | 64 | 1009.2 |
| 20260507094404 | 20 | 221 | 9.7 | 19.3 | 0.00 | 0.00 | 0.00 | 65 | 1009.2 |
| 20260507093405 | 20 | 186 | 4.8 | 14.5 | 0.00 | 0.00 | 0.00 | 64 | 1009.2 |
| 20260507092904 | 20 | 195 | 6.4 | 19.3 | 0.00 | 0.00 | 0.00 | 65 | 1009.1 |
| 20260507091904 | 20 | 205 | 4.8 | 14.5 | 0.00 | 0.00 | 0.00 | 66 | 1009.1 |
| 20260507091404 | 20 | 189 | 3.2 | 11.3 | 0.00 | 0.00 | 0.00 | 67 | 1009.0 |
| 20260507090904 | 19 | 241 | 9.7 | 16.1 | 0.00 | 0.00 | 0.00 | 68 | 1008.9 |
| 20260507090404 | 19 | 175 | 4.8 | 12.9 | 0.00 | 0.00 | 0.00 | 69 | 1008.9 |
| 20260507085905 | 18 | 188 | 1.6 | 9.7 | 0.00 | 0.00 | 0.00 | 70 | 1008.9 |
| 20260507085404 | 18 | 218 | 3.2 | 9.7 | 0.00 | 0.00 | 0.00 | 70 | 1008.9 |
| 20260507084404 | 18 | 201 | 4.8 | 11.3 | 0.00 | 0.00 | 0.00 | 70 | 1008.8 |
| 20260507083904 | 18 | 206 | 4.8 | 12.9 | 0.00 | 0.00 | 0.00 | 70 | 1008.8 |
| 20260507083404 | 18 | 186 | 4.8 | 11.3 | 0.00 | 0.00 | 0.00 | 71 | 1008.7 |
| 20260507082404 | 18 | 216 | 4.8 | 8.0 | 0.00 | 0.00 | 0.00 | 69 | 1008.7 |
| 20260507081905 | 18 | 205 | 4.8 | 9.7 | 0.00 | 0.00 | 0.00 | 70 | 1008.7 |
| 20260507081404 | 18 | 229 | 6.4 | 12.9 | 0.00 | 0.00 | 0.00 | 69 | 1008.6 |
| 20260507080405 | 18 | 190 | 0.0 | 4.8 | 0.00 | 0.00 | 0.00 | 69 | 1008.6 |
| 20260507075904 | 18 | 193 | 3.2 | 11.3 | 0.00 | 0.00 | 0.00 | 70 | 1008.6 |
| 20260507075404 | 18 | 228 | 6.4 | 11.3 | 0.00 | 0.00 | 0.00 | 71 | 1008.6 |
| 20260507074905 | 18 | 248 | 4.8 | 12.9 | 0.00 | 0.00 | 0.00 | 72 | 1008.6 |
| 20260507074404 | 18 | 229 | 8.0 | 16.1 | 0.00 | 0.00 | 0.00 | 71 | 1008.6 |
| 20260507073904 | 17 | 222 | 8.0 | 14.5 | 0.00 | 0.00 | 0.00 | 72 | 1008.6 |
| 20260507073404 | 17 | 246 | 4.8 | 11.3 | 0.00 | 0.00 | 0.00 | 73 | 1008.6 |
| 20260507072905 | 17 | 233 | 3.2 | 8.0 | 0.00 | 0.00 | 0.00 | 74 | 1008.6 |
| 20260507071405 | 16 | 175 | 1.6 | 8.0 | 0.00 | 0.00 | 0.00 | 75 | 1008.5 |
| 20260507070904 | 16 | 209 | 8.0 | 12.9 | 0.00 | 0.00 | 0.00 | 76 | 1008.5 |
| 20260507070404 | 16 | 192 | 3.2 | 11.3 | 0.00 | 0.00 | 0.00 | 76 | 1008.4 |
| 20260507065904 | 16 | 198 | 6.4 | 12.9 | 0.00 | 0.00 | 0.00 | 77 | 1008.4 |